Wind_Speed
29 29 29 30 29 29 29 29 30 30 30 30 31 32 32 32 32 32 32 32 33 33 33 34 34 34 34 34 34 34 34 33 33 33 33 33 33 33 33 33 33 32 32
30 31 30 30 31 31 31 32 32 32 32 32 33 33 34 34 34 34 34 35 35 35 35 35 36 37 37 36 36 36 36 36 36 36 36 36 35 35 35 35 35 35 35
31 32 32 32 32 32 33 34 34 34 34 34 35 35 36 37 37 37 37 37 37 37 38 38 38 39 39 38 38 38 38 37 38 38 38 38 38 38 38 38 38 38 38
33 33 33 33 34 34 34 35 36 36 36 37 37 38 38 39 38 39 39 39 39 40 40 40 41 41 41 40 40 40 40 39 39 39 39 40 40 40 40 40 40 40 40
34 34 35 35 35 36 36 37 37 38 39 39 40 40 40 40 40 40 41 41 41 42 42 43 43 43 43 42 42 42 42 41 41 41 42 42 42 42 42 42 43 43 43
36 36 36 37 37 38 38 38 39 40 41 41 42 42 41 41 42 42 43 43 43 43 44 44 44 44 45 44 45 45 45 44 44 44 44 44 45 45 45 45 45 45 45
38 38 38 38 39 39 40 40 41 42 42 43 43 43 43 43 43 43 43 43 43 43 44 44 44 45 46 46 47 47 47 47 47 47 47 47 47 48 48 47 48 48 48
38 38 39 39 40 40 41 42 43 43 43 43 43 43 43 43 44 45 45 45 46 46 46 46 46 46 47 47 48 49 49 50 50 50 50 50 50 50 50 50 51 51 50
39 39 40 40 41 41 42 42 43 44 43 43 44 44 44 44 44 45 46 47 48 48 48 48 48 49 49 49 50 50 51 51 52 52 53 53 53 53 53 53 53 52 52
40 40 41 41 41 42 42 42 43 44 43 43 44 44 45 45 45 45 46 48 48 49 50 50 51 51 52 52 52 52 53 54 54 55 55 55 55 55 55 54 54 55 53
40 41 41 41 42 42 42 42 43 43 43 43 43 44 45 45 46 47 46 47 48 49 50 51 52 52 54 54 54 54 55 56 56 56 57 57 57 57 57 57 57 56 56
40 41 42 42 42 43 43 43 42 43 43 43 44 44 45 46 46 47 47 47 48 48 50 51 52 53 54 55 56 56 56 57 57 58 58 58 59 59 58 59 59 58 58
41 42 42 42 42 43 43 43 43 43 43 43 44 45 46 47 48 49 50 50 50 50 50 51 53 54 55 56 57 57 57 57 57 58 58 59 59 60 59 59 59 59 59
42 42 42 42 43 43 43 43 43 44 44 45 47 48 48 49 49 50 52 53 53 52 52 52 53 55 56 57 57 57 58 58 58 59 59 59 60 60 60 59 60 59 60
43 43 43 44 44 44 45 45 45 46 46 47 48 49 50 51 52 53 53 55 56 55 54 54 54 54 56 56 56 57 58 58 59 59 60 59 59 59 60 61 61 61 60
44 44 44 45 45 45 46 47 47 48 48 49 50 51 52 53 53 54 55 56 57 58 57 55 55 55 55 56 56 57 57 58 58 58 58 59 59 60 60 60 61 61 60
46 46 46 46 46 47 47 48 49 49 50 51 52 53 54 55 55 57 57 57 58 58 58 56 55 55 56 56 56 56 56 57 57 56 57 58 59 59 59 59 59 59 59
47 47 47 48 48 48 49 50 51 51 52 53 54 56 56 57 58 58 58 58 58 58 58 57 55 55 55 55 55 55 55 55 55 56 56 57 57 58 58 58 58 57 56
48 48 48 49 50 50 50 51 52 53 54 54 56 57 58 58 58 59 58 58 57 57 57 57 55 54 54 53 54 53 54 54 55 55 56 56 56 56 56 57 56 55 55
49 49 49 50 50 51 52 52 53 54 55 56 57 58 58 58 58 57 57 56 55 55 54 55 54 52 52 52 53 53 54 54 55 55 54 54 54 53 53 53 53 53 53
48 49 49 50 51 52 52 53 54 55 56 56 57 57 57 56 56 55 54 53 53 52 52 52 52 52 52 52 53 54 54 54 53 54 53 52 52 51 51 51 51 51 51
48 49 50 51 52 52 53 54 55 56 56 56 56 55 54 53 52 52 51 51 51 51 51 51 51 51 51 52 52 52 52 52 51 51 51 50 50 49 48 49 49 49 48
49 49 50 51 52 53 53 54 55 55 55 55 54 53 52 51 50 50 50 50 50 51 51 51 51 51 51 50 50 51 51 51 50 49 49 47 46 46 46 46 46 46 46
50 50 51 52 52 52 53 54 54 54 53 52 51 50 49 48 48 49 49 49 49 49 49 50 50 49 49 49 50 50 50 49 47 47 47 45 44 43 43 43 42 42 42
50 51 51 52 52 52 52 53 53 52 51 50 49 48 48 47 46 47 47 47 47 47 48 48 49 49 49 49 49 49 48 47 45 44 44 43 42 42 40 39 39 39 38
50 51 50 50 51 51 51 51 51 50 49 48 47 46 45 44 44 45 45 46 45 46 47 47 48 48 48 48 47 47 47 45 44 41 41 41 40 40 38 36 36 35 36
Wind_Direction
267 269 270 271 271 272 272 272 272 273 273 273 273 274 274 275 275 276 276 276 277 278 278 279 280 280 280 280 280 279 279 279 280 280 280 280 280 280 281 281 282 283 284
267 268 270 271 271 272 272 272 272 273 274 274 274 274 275 275 275 276 276 277 278 278 279 279 279 279 279 279 279 279 279 278 278 279 279 280 280 280 280 280 281 282 282
267 268 269 271 271 272 273 273 273 273 274 275 275 275 276 276 275 276 276 277 278 278 278 279 279 280 279 279 279 278 278 279 279 278 278 279 279 280 279 279 280 280 280
267 268 270 271 272 273 274 274 273 274 275 276 276 277 276 276 276 276 276 277 278 278 279 279 279 279 278 278 278 278 278 278 278 278 278 278 279 279 278 278 279 279 279
268 269 270 271 272 273 275 275 273 274 275 276 277 277 277 276 276 276 276 277 277 278 278 278 278 277 277 277 277 278 277 277 277 277 278 278 278 278 278 278 278 278 278
268 270 271 272 273 274 275 276 275 275 275 276 276 276 276 275 275 276 276 276 277 278 279 279 278 278 277 277 277 277 276 276 276 276 277 277 277 277 277 278 277 277 277
269 270 271 273 274 275 276 276 276 276 277 277 276 275 275 276 275 276 277 277 277 278 279 279 280 280 279 279 278 277 276 276 275 275 276 276 277 277 278 277 277 276 276
269 270 273 274 275 276 277 277 278 278 278 278 277 276 276 276 275 275 276 276 277 278 279 280 280 280 280 279 279 279 278 277 276 276 276 276 276 277 277 276 276 276 275
269 270 273 275 276 277 278 279 279 278 278 278 278 278 278 277 276 276 276 277 278 279 280 280 280 281 281 280 279 279 278 278 277 277 277 276 276 276 276 276 276 275 275
270 272 274 276 277 278 278 279 280 278 278 278 278 279 279 280 279 278 278 278 279 280 280 280 280 281 281 281 281 280 279 279 279 278 278 277 277 276 275 276 276 275 274
271 273 274 275 277 278 279 279 279 279 278 278 279 279 280 281 282 281 280 279 280 281 282 282 282 282 282 282 281 281 281 280 279 279 278 277 276 276 275 275 275 275 274
272 274 275 277 278 278 279 279 279 279 279 279 279 280 281 282 283 283 282 282 281 282 283 283 284 283 283 282 282 281 281 280 279 279 278 277 276 276 275 275 275 274 273
272 274 275 276 277 278 278 279 279 279 279 279 280 281 282 283 283 284 284 284 283 283 283 283 284 284 284 283 283 282 281 281 280 279 278 278 277 276 275 275 275 274 273
272 274 275 276 277 277 277 278 279 280 280 280 281 282 283 283 284 285 285 284 284 283 283 284 284 284 284 284 283 282 282 281 280 280 279 278 277 276 276 275 274 274 274
272 273 274 275 276 276 276 277 278 279 280 281 282 283 284 284 285 286 286 286 286 285 284 284 284 284 284 284 283 283 282 282 282 280 279 279 278 277 276 275 274 274 273
272 273 274 275 275 276 277 278 279 280 281 282 283 283 284 285 285 285 286 286 286 286 285 285 284 284 284 284 284 284 284 284 283 282 281 279 278 277 277 276 275 274 273
272 274 275 276 276 277 278 278 280 281 282 283 284 285 285 285 285 286 286 286 286 286 286 286 285 285 285 284 284 284 284 284 284 283 282 280 279 278 277 276 276 275 274
272 273 275 276 277 277 278 279 281 282 283 284 285 285 285 285 285 286 286 286 286 286 286 286 285 285 285 284 284 284 284 285 285 284 283 282 281 279 277 277 276 275 274
272 274 275 276 277 278 279 280 282 283 283 285 286 286 285 285 285 286 286 286 286 285 286 286 286 285 285 285 284 285 285 285 285 285 283 282 281 279 278 277 276 275 273
272 274 275 276 277 278 279 281 282 283 284 285 286 286 286 285 285 285 285 285 285 285 286 286 286 286 286 286 285 285 285 286 286 285 284 283 281 280 279 278 276 275 273
273 274 275 276 277 278 280 281 282 283 284 286 286 287 286 285 285 285 286 286 285 286 287 287 287 287 287 287 287 287 286 286 286 285 284 283 282 280 280 278 276 275 274
273 274 276 277 278 279 280 281 283 284 285 285 286 286 286 285 285 285 286 286 286 287 287 288 289 289 289 288 288 289 288 287 286 285 284 282 281 280 279 278 277 276 275
273 275 277 278 279 280 281 282 283 284 285 286 286 286 285 285 285 286 286 286 287 288 288 288 289 290 289 290 290 290 289 288 287 285 284 283 281 280 279 279 277 276 276
274 276 277 279 280 281 282 283 284 285 286 286 286 285 285 285 285 285 286 286 286 287 288 288 290 290 290 290 290 290 290 288 287 286 285 284 281 280 280 279 278 278 276
275 277 278 279 281 281 282 283 284 285 285 285 285 285 285 285 285 286 286 287 287 288 288 289 290 290 291 290 291 290 290 288 286 284 284 283 281 280 280 279 278 277 275
275 277 279 280 281 281 282 283 284 285 285 285 284 284 285 285 286 287 288 289 289 289 290 290 290 290 291 290 291 291 290 289 287 285 283 282 281 281 280 279 277 276 274
Height
5832 5832 5832 5832 5832 5832 5831 5831 5831 5830 5830 5829 5829 5828 5828 5827 5827 5826 5825 5825 5824 5823 5822 5821 5820 5819 5818 5817 5816 5815 5814 5814 5813 5812 5811 5810 5809 5809 5808 5807 5806 5804 5803
5826 5826 5826 5826 5826 5825 5825 5824 5824 5824 5823 5823 5822 5821 5821 5820 5820 5819 5818 5817 5817 5816 5815 5814 5812 5811 5810 5809 5808 5807 5807 5806 5805 5804 5803 5802 5802 5801 5800 5799 5798 5797 5796
5819 5819 5819 5819 5819 5818 5818 5817 5817 5816 5816 5815 5815 5814 5813 5812 5812 5811 5810 5809 5809 5808 5807 5805 5804 5803 5802 5801 5800 5799 5798 5797 5796 5795 5795 5794 5793 5792 5792 5791 5790 5789 5788
5812 5812 5812 5812 5811 5811 5810 5810 5809 5809 5808 5807 5806 5806 5805 5804 5803 5803 5802 5801 5800 5799 5797 5796 5795 5794 5792 5791 5790 5790 5789 5788 5787 5786 5786 5785 5784 5783 5782 5781 5781 5780 5779
5804 5804 5804 5804 5803 5803 5802 5801 5801 5800 5799 5798 5798 5797 5796 5795 5794 5794 5793 5792 5790 5789 5788 5786 5785 5784 5782 5781 5780 5779 5778 5778 5777 5776 5775 5775 5774 5773 5772 5771 5771 5770 5769
5796 5796 5796 5795 5795 5794 5794 5793 5792 5791 5790 5789 5788 5787 5786 5785 5784 5784 5783 5782 5781 5779 5778 5776 5774 5773 5771 5770 5769 5768 5767 5767 5766 5765 5765 5764 5763 5762 5761 5760 5760 5759 5758
5787 5787 5787 5786 5786 5785 5784 5783 5782 5781 5781 5779 5778 5778 5777 5776 5775 5773 5772 5771 5770 5768 5767 5765 5763 5762 5760 5758 5757 5756 5755 5754 5754 5753 5753 5752 5751 5750 5750 5749 5748 5747 5747
5778 5778 5777 5777 5776 5775 5775 5773 5772 5771 5770 5769 5768 5767 5767 5767 5765 5763 5762 5760 5759 5757 5756 5754 5752 5750 5748 5747 5745 5744 5742 5741 5741 5740 5740 5739 5738 5738 5737 5736 5735 5734 5734
5769 5768 5768 5767 5766 5765 5764 5763 5762 5761 5760 5758 5757 5756 5755 5755 5754 5754 5752 5750 5748 5746 5744 5742 5740 5738 5736 5734 5733 5731 5729 5728 5727 5727 5726 5726 5725 5724 5723 5722 5721 5720 5720
5759 5759 5758 5757 5756 5755 5754 5753 5752 5750 5749 5748 5746 5744 5743 5742 5741 5741 5741 5738 5736 5734 5732 5730 5728 5725 5723 5721 5719 5717 5715 5714 5713 5712 5711 5711 5710 5709 5708 5707 5706 5706 5705
5750 5749 5748 5747 5746 5744 5744 5743 5741 5740 5738 5737 5736 5734 5732 5731 5729 5728 5728 5727 5725 5722 5720 5717 5714 5712 5709 5707 5705 5703 5701 5700 5698 5697 5696 5695 5694 5693 5693 5692 5691 5689 5689
5740 5739 5738 5737 5736 5734 5733 5732 5731 5729 5728 5726 5725 5723 5721 5720 5718 5715 5714 5714 5712 5711 5707 5704 5701 5698 5695 5692 5690 5688 5686 5684 5682 5681 5680 5679 5678 5677 5676 5675 5675 5674 5673
5730 5729 5728 5727 5725 5724 5723 5722 5720 5719 5717 5716 5714 5712 5710 5708 5705 5703 5700 5699 5698 5698 5695 5692 5688 5684 5681 5677 5675 5672 5670 5668 5666 5665 5663 5662 5661 5660 5659 5658 5657 5657 5656
5719 5718 5718 5716 5715 5714 5712 5711 5710 5708 5707 5705 5703 5701 5698 5696 5693 5690 5687 5684 5683 5683 5682 5679 5675 5671 5666 5663 5660 5657 5654 5652 5650 5648 5647 5645 5644 5643 5642 5641 5640 5640 5639
5708 5708 5707 5706 5704 5703 5702 5700 5699 5697 5695 5693 5691 5688 5686 5683 5680 5677 5674 5670 5667 5665 5666 5665 5661 5657 5652 5648 5645 5641 5639 5636 5633 5631 5630 5629 5627 5626 5625 5624 5623 5622 5621
5697 5697 5696 5694 5693 5692 5690 5689 5687 5685 5683 5681 5678 5676 5673 5670 5667 5663 5660 5656 5652 5648 5647 5649 5646 5642 5637 5633 5629 5626 5623 5620 5617 5615 5613 5611 5610 5609 5607 5606 5605 5604 5603
5686 5685 5684 5683 5682 5680 5679 5677 5675 5673 5670 5668 5665 5662 5659 5656 5653 5649 5645 5642 5638 5633 5630 5631 5629 5626 5622 5618 5615 5611 5607 5604 5602 5599 5596 5594 5593 5591 5590 5589 5587 5586 5586
5674 5673 5672 5671 5670 5668 5666 5665 5663 5660 5658 5655 5652 5648 5645 5641 5638 5634 5630 5627 5623 5619 5615 5614 5614 5611 5607 5603 5600 5596 5592 5589 5586 5583 5580 5578 5576 5574 5572 5571 5570 5569 5569
5662 5661 5660 5659 5657 5655 5654 5652 5650 5647 5644 5641 5637 5633 5630 5626 5623 5619 5615 5612 5608 5605 5601 5598 5598 5596 5592 5588 5584 5581 5578 5574 5571 5568 5564 5562 5559 5557 5555 5554 5552 5552 5552
5650 5649 5647 5646 5644 5642 5641 5638 5636 5633 5630 5627 5623 5618 5614 5610 5607 5604 5601 5597 5593 5591 5587 5584 5582 5580 5577 5573 5569 5567 5564 5560 5556 5552 5548 5546 5543 5541 5539 5537 5536 5536 5535
5637 5636 5635 5633 5631 5629 5627 5624 5622 5619 5616 5612 5608 5604 5599 5596 5592 5589 5585 5582 5579 5577 5573 5570 5568 5565 5562 5559 5555 5551 5548 5546 5543 5538 5534 5531 5528 5526 5524 5522 5520 5519 5519
5624 5623 5622 5620 5618 5616 5613 5610 5607 5605 5601 5598 5594 5590 5586 5582 5579 5575 5572 5569 5566 5563 5560 5557 5554 5551 5548 5544 5539 5536 5532 5530 5529 5526 5520 5518 5514 5512 5510 5507 5505 5504 5503
5612 5610 5609 5607 5605 5602 5599 5596 5593 5590 5587 5583 5579 5575 5572 5569 5565 5562 5559 5556 5553 5549 5546 5543 5540 5537 5534 5530 5526 5523 5518 5514 5512 5509 5505 5505 5501 5499 5496 5493 5491 5490 5489
5599 5597 5595 5593 5591 5588 5585 5582 5579 5576 5573 5569 5565 5562 5559 5556 5553 5550 5547 5545 5541 5538 5534 5530 5526 5523 5519 5516 5511 5508 5504 5501 5499 5495 5491 5489 5488 5486 5484 5481 5478 5477 5476
5586 5584 5582 5580 5577 5575 5571 5568 5565 5562 5560 5556 5552 5549 5546 5544 5541 5538 5535 5532 5530 5526 5521 5517 5513 5510 5506 5502 5498 5494 5491 5487 5486 5484 5479 5476 5475 5473 5472 5470 5467 5465 5463
5572 5570 5569 5566 5564 5561 5558 5555 5551 5549 5546 5543 5540 5537 5534 5532 5529 5526 5523 5520 5517 5514 5510 5506 5502 5498 5494 5490 5485 5481 5477 5474 5472 5471 5468 5464 5463 5460 5460 5460 5457 5454 5453